User: anonymous   Login
Location: Boissi�res
(45.2500°N, 2.3667°E)
Time: 20:41:02
(UTC+00:00)
Language:

Resurs 1-3 - Orbit

View from above orbital plane
View from above orbital plane
View from above satellite
View from above satellite

Ground track
Ground track

The orbit data is extracted from the following two-line orbital elements,

1 23342U 94074A   21136.73553013  .00000138  00000-0  25392-4 0  9995
2 23342  97.8800 186.2072 0001965  68.6120 291.5301 14.79417318428862
Epoch (UTC): 16 May 2021 17:39:09
Eccentricity: 0.0001965
inclination: 97.8800°
perigee height: 630 km
apogee height: 632 km
right ascension of ascending node: 186.2072°
argument of perigee: 68.6120°
revolutions per day: 14.79417318
mean anomaly at epoch: 291.5301°
orbit number at epoch: 42886

The dashed part of the orbit path shows where the satellite is in the earth's shadow,  

DLR